period_start,C,m1,H,J0,J1,J2,J3,J4,J5,JA,JB,JC,JD,JJ,JK,JN,#
2018-03-21 00:02:15,0.22,1.22,0.00,16.38,19.69,23.01,14.38,47.02,1020.47,2056.98,3018.31,2794.99,3210.23,600.04,612.03,6.60,0000 0000 0000 0000 000000
2018-03-21 00:07:16,0.19,1.23,0.00,16.40,19.69,23.00,14.30,46.98,1020.41,2056.98,3014.38,2792.40,3207.22,600.07,612.09,6.65,0000 0000 0000 0000 000000
2018-03-21 00:12:18,0.19,1.24,0.00,16.43,19.72,23.01,14.35,47.04,1020.36,2056.94,3010.52,2789.81,3204.25,600.28,612.08,6.70,0000 0000 0000 0000 000000
2018-03-21 00:17:19,0.20,1.25,0.00,16.46,19.73,23.00,14.30,46.93,1020.30,2056.91,3006.70,2787.15,3201.16,599.96,611.74,6.75,0000 0000 0000 0000 000000
2018-03-21 00:22:20,0.17,1.26,0.00,16.49,19.75,23.03,14.40,46.95,1020.07,2056.79,3002.88,2784.64,3198.33,600.28,611.77,6.80,0000 0000 0000 0000 000000
2018-03-21 00:27:22,0.15,1.27,0.00,16.51,19.77,23.02,14.35,46.84,1020.07,2056.28,2999.09,2782.10,3195.46,600.03,611.47,6.85,0000 0000 0000 0000 000000
2018-03-21 00:32:23,0.20,1.28,0.00,16.53,19.79,23.02,14.32,47.02,1020.06,2056.07,2994.88,2779.33,3192.39,599.91,611.35,6.90,0000 0000 0000 0000 000000
2018-03-21 00:37:24,0.18,1.29,0.00,16.55,19.81,23.05,14.32,47.04,1020.04,2056.06,2991.18,2776.90,3189.58,600.05,611.42,6.95,0000 0000 0000 0000 000000
2018-03-21 00:42:26,0.17,1.29,0.00,16.57,19.83,23.04,14.26,47.06,1020.04,2056.01,2987.64,2774.52,3186.88,599.50,610.86,7.00,0000 0000 0000 0000 000000
2018-03-21 00:47:27,0.18,1.30,0.00,16.60,19.84,23.06,14.45,47.19,1020.04,2056.01,2984.09,2772.21,3184.20,600.38,611.65,7.05,0000 0000 0000 0000 000000
2018-03-21 00:52:29,0.18,1.31,0.00,16.62,19.87,23.07,14.41,47.14,1020.03,2056.01,2980.57,2769.86,3181.52,600.46,611.67,7.10,0000 0000 0000 0000 000000
2018-03-21 00:57:30,0.18,1.32,0.00,16.66,19.88,23.10,14.25,47.02,1020.01,2055.99,2977.00,2767.48,3178.82,600.08,611.23,7.15,0000 0000 0000 0000 000000
2018-03-21 01:02:31,0.19,1.33,0.00,16.68,19.91,23.12,14.40,47.07,1019.93,2055.98,2973.49,2765.15,3176.09,600.34,611.40,7.20,0000 0000 0000 0000 000000
2018-03-21 01:07:33,0.17,1.34,0.00,16.72,19.93,23.14,14.28,47.04,1019.69,2055.98,2970.06,2762.86,3173.39,600.06,610.82,7.25,0000 0000 0000 0000 000000
2018-03-21 01:12:34,0.16,1.35,0.00,16.72,19.96,23.15,14.26,46.98,1019.67,2055.93,2966.58,2760.53,3170.77,600.07,610.85,7.30,0000 0000 0000 0000 000000
2018-03-21 01:17:35,0.18,1.36,0.00,16.74,19.98,23.17,14.23,46.86,1019.67,2055.79,2962.93,2758.18,3168.06,600.02,610.75,7.35,0000 0000 0000 0000 000000
2018-03-21 01:22:36,0.13,1.37,0.00,16.78,20.01,23.18,14.30,47.05,1019.62,2055.21,2959.38,2755.76,3165.22,600.08,610.64,7.40,0000 0000 0000 0000 000000
2018-03-21 01:27:38,0.16,1.37,0.00,16.82,20.03,23.23,14.28,46.97,1019.56,2055.06,2955.93,2753.47,3162.55,599.97,610.46,7.45,0000 0000 0000 0000 000000
2018-03-21 01:32:39,0.17,1.38,0.00,16.85,20.07,23.24,14.29,46.99,1019.55,2055.02,2952.56,2751.26,3159.88,600.01,610.44,7.50,0000 0000 0000 0000 000000
2018-03-21 01:37:40,0.18,1.39,0.00,16.87,20.09,23.28,14.29,46.92,1019.55,2055.00,2949.06,2749.07,3157.27,599.92,610.30,7.55,0000 0000 0000 0000 000000
2018-03-21 01:42:41,0.19,1.40,0.00,16.91,20.12,23.30,14.28,47.02,1019.55,2055.00,2945.55,2746.66,3154.55,599.74,610.00,7.60,0000 0000 0000 0000 000000
2018-03-21 01:47:42,0.18,1.41,0.00,16.93,20.15,23.31,14.27,46.99,1019.55,2055.00,2942.14,2744.33,3151.81,600.01,610.48,7.65,0000 0000 0000 0000 000000
2018-03-21 01:52:43,0.19,1.42,0.00,16.96,20.17,23.35,14.26,46.92,1019.55,2054.99,2938.61,2741.96,3149.08,599.97,610.16,7.70,0000 0000 0000 0000 000000
2018-03-21 01:57:45,0.18,1.43,0.00,16.99,20.20,23.38,14.27,46.75,1019.53,2054.97,2935.02,2739.55,3146.34,599.85,609.98,7.75,0000 0000 0000 0000 000000
2018-03-21 02:02:46,0.19,1.44,0.00,17.02,20.23,23.39,14.33,46.77,1019.39,2054.91,2931.31,2737.13,3143.55,600.23,610.26,7.80,0000 0000 0000 0000 000000
2018-03-21 02:07:48,0.16,1.45,0.00,17.06,20.25,23.44,14.27,46.90,1019.22,2054.53,2927.34,2734.49,3140.59,599.93,609.69,7.85,0000 0000 0000 0000 000000
2018-03-21 02:12:49,0.19,1.46,0.00,17.10,20.28,23.47,14.19,46.78,1019.16,2054.14,2923.19,2731.79,3137.50,599.96,609.60,7.90,0000 0000 0000 0000 000000
2018-03-21 02:17:50,0.21,1.47,0.00,17.14,20.31,23.49,14.21,46.87,1019.15,2054.02,2919.11,2729.09,3134.51,599.98,609.62,7.95,0000 0000 0000 0000 000000
2018-03-21 02:22:52,0.22,1.48,0.00,17.17,20.34,23.53,14.24,46.92,1019.07,2054.01,2915.04,2726.31,3131.41,599.88,609.38,8.00,0000 0000 0000 0000 000000
2018-03-21 02:27:53,0.24,1.49,0.00,17.20,20.37,23.55,14.23,46.94,1019.08,2054.00,2910.57,2723.38,3128.06,599.88,609.18,8.05,0000 0000 0000 0000 000000
2018-03-21 02:32:54,0.23,1.50,0.00,17.25,20.40,23.59,14.26,46.88,1019.07,2054.00,2906.17,2720.50,3124.72,599.94,609.26,8.10,0000 0000 0000 0000 000000
2018-03-21 02:37:56,0.24,1.51,0.00,17.30,20.44,23.61,14.28,46.92,1019.06,2053.98,2901.74,2717.58,3121.40,600.22,609.42,8.15,0000 0000 0000 0000 000000
2018-03-21 02:42:56,0.24,1.53,0.00,17.34,20.47,23.65,14.36,46.98,1019.07,2053.94,2897.12,2714.53,3117.94,600.32,609.40,8.20,0000 0000 0000 0000 000000
2018-03-21 02:47:58,0.19,1.54,0.00,17.38,20.51,23.69,14.28,47.06,1019.06,2053.60,2892.75,2711.62,3114.63,599.80,608.88,8.25,0000 0000 0000 0000 000000
2018-03-21 02:52:59,0.19,1.55,0.00,17.41,20.54,23.71,14.29,46.83,1019.05,2053.08,2888.38,2708.66,3111.19,600.10,609.10,8.30,0000 0000 0000 0000 000000
2018-03-21 02:58:00,0.21,1.56,0.00,17.45,20.58,23.75,14.18,46.91,1019.03,2053.02,2884.34,2705.96,3108.10,599.65,608.51,8.35,0000 0000 0000 0000 000000
2018-03-21 03:03:01,0.22,1.57,0.00,17.50,20.62,23.78,14.19,46.95,1018.87,2053.00,2880.23,2703.20,3104.95,599.83,608.63,8.40,0000 0000 0000 0000 000000
2018-03-21 03:08:03,0.22,1.58,0.00,17.53,20.66,23.81,14.17,47.03,1018.73,2053.00,2876.36,2700.48,3101.83,599.49,608.07,8.45,0000 0000 0000 0000 000000
2018-03-21 03:13:04,0.23,1.59,0.00,17.58,20.69,23.86,14.14,46.89,1018.66,2053.00,2872.11,2697.61,3098.55,599.97,608.38,8.50,0000 0000 0000 0000 000000
2018-03-21 03:18:05,0.22,1.60,0.00,17.62,20.73,23.90,14.23,46.92,1018.58,2052.95,2867.74,2694.72,3095.21,600.05,608.28,8.55,0000 0000 0000 0000 000000
2018-03-21 03:23:06,0.20,1.61,0.00,17.67,20.77,23.92,14.19,46.97,1018.58,2052.59,2863.21,2691.73,3091.79,599.97,608.06,8.60,0000 0000 0000 0000 000000
2018-03-21 03:28:08,0.22,1.63,0.00,17.72,20.81,23.95,14.16,46.99,1018.58,2052.11,2858.49,2688.55,3088.18,600.00,608.08,8.65,0000 0000 0000 0000 000000
2018-03-21 03:33:09,0.23,1.64,0.00,17.75,20.85,23.99,14.23,47.14,1018.57,2052.02,2854.15,2685.74,3084.91,600.07,608.03,8.70,0000 0000 0000 0000 000000
2018-03-21 03:38:10,0.26,1.65,0.00,17.79,20.89,24.03,14.13,46.98,1018.57,2052.00,2849.48,2682.63,3081.28,599.64,607.69,8.75,0000 0000 0000 0000 000000
2018-03-21 03:43:12,0.25,1.66,0.00,17.83,20.93,24.07,14.24,47.03,1018.57,2051.99,2844.75,2679.45,3077.67,599.99,607.83,8.80,0000 0000 0000 0000 000000
2018-03-21 03:48:13,0.23,1.67,0.00,17.88,20.98,24.11,14.21,47.02,1018.56,2051.97,2840.40,2676.51,3074.33,599.78,607.47,8.85,0000 0000 0000 0000 000000
2018-03-21 03:53:14,0.19,1.69,0.00,17.93,21.02,24.14,14.20,47.04,1018.52,2051.75,2836.35,2673.75,3071.17,599.88,607.44,8.91,0000 0000 0000 0000 000000
2018-03-21 03:58:16,0.17,1.69,0.00,17.98,21.06,24.18,14.14,47.06,1018.54,2051.24,2832.37,2671.08,3068.17,599.66,607.07,8.96,0000 0000 0000 0000 000000
2018-03-21 04:03:17,0.23,1.70,0.00,18.03,21.11,24.22,14.19,46.93,1018.54,2051.03,2828.18,2668.21,3064.93,599.91,607.17,9.01,0000 0000 0000 0000 000000
2018-03-21 04:08:18,0.24,1.72,0.00,18.08,21.15,24.27,14.14,46.99,1018.52,2051.00,2823.99,2665.34,3061.65,599.82,607.11,9.06,0000 0000 0000 0000 000000
2018-03-21 04:13:20,0.22,1.73,0.00,18.13,21.19,24.31,14.16,47.08,1018.38,2050.99,2819.87,2662.56,3058.42,600.11,607.09,9.11,0000 0000 0000 0000 000000
2018-03-21 04:18:21,0.23,1.74,0.00,18.18,21.23,24.35,14.21,47.09,1018.38,2050.96,2815.71,2659.68,3055.17,600.13,606.79,9.16,0000 0000 0000 0000 000000
2018-03-21 04:23:22,0.19,1.75,0.00,18.22,21.28,24.39,14.20,47.05,1018.19,2050.49,2811.34,2656.67,3051.71,600.16,606.81,9.21,0000 0000 0000 0000 000000
2018-03-21 04:28:23,0.21,1.76,0.00,18.26,21.32,24.43,14.06,46.76,1018.14,2050.07,2807.10,2653.72,3048.36,599.62,606.25,9.26,0000 0000 0000 0000 000000
2018-03-21 04:33:25,0.24,1.77,0.00,18.31,21.37,24.47,14.24,46.98,1018.10,2050.02,2802.78,2650.81,3045.05,600.06,606.61,9.31,0000 0000 0000 0000 000000
2018-03-21 04:38:26,0.25,1.78,0.00,18.34,21.41,24.52,14.16,46.88,1018.09,2050.00,2798.33,2647.74,3041.57,599.84,606.38,9.36,0000 0000 0000 0000 000000
2018-03-21 04:43:27,0.23,1.80,0.00,18.38,21.46,24.56,14.13,46.93,1018.08,2050.00,2794.14,2644.87,3038.23,599.71,606.21,9.41,0000 0000 0000 0000 000000
2018-03-21 04:48:28,0.22,1.81,0.00,18.43,21.50,24.62,14.12,46.93,1018.08,2049.89,2790.00,2642.05,3034.99,599.60,605.85,9.46,0000 0000 0000 0000 000000
2018-03-21 04:53:30,0.17,1.82,0.00,18.47,21.55,24.66,14.16,47.01,1018.08,2049.32,2785.85,2639.23,3031.74,599.85,606.21,9.51,0000 0000 0000 0000 000000
2018-03-21 04:58:31,0.24,1.83,0.00,18.51,21.59,24.69,14.15,46.94,1018.07,2049.03,2781.49,2636.26,3028.36,599.74,605.89,9.56,0000 0000 0000 0000 000000
2018-03-21 05:03:32,0.26,1.84,0.00,18.55,21.63,24.74,14.14,46.97,1018.05,2049.00,2776.90,2633.19,3024.88,599.78,605.75,9.61,0000 0000 0000 0000 000000
2018-03-21 05:08:33,0.27,1.86,0.00,18.59,21.68,24.78,14.17,46.93,1017.81,2049.00,2772.06,2630.00,3021.21,600.18,605.89,9.66,0000 0000 0000 0000 000000
2018-03-21 05:13:34,0.28,1.87,0.00,18.63,21.72,24.82,14.17,46.92,1017.62,2048.99,2767.08,2626.69,3017.50,599.90,605.49,9.71,0000 0000 0000 0000 000000
2018-03-21 05:18:36,0.27,1.88,0.00,18.68,21.76,24.86,14.17,46.97,1017.60,2048.98,2762.25,2623.52,3013.79,599.94,605.38,9.76,0000 0000 0000 0000 000000
2018-03-21 05:23:37,0.24,1.90,0.00,18.72,21.80,24.90,14.13,46.99,1017.59,2048.62,2757.21,2620.26,3009.96,599.91,605.23,9.81,0000 0000 0000 0000 000000
2018-03-21 05:28:38,0.24,1.91,0.00,18.76,21.84,24.95,14.11,47.02,1017.59,2048.09,2752.08,2616.83,3006.21,600.01,605.36,9.86,0000 0000 0000 0000 000000
2018-03-21 05:33:39,0.30,1.92,0.00,18.79,21.88,25.00,14.05,46.81,1017.59,2048.02,2747.08,2613.36,3002.28,599.63,604.87,9.91,0000 0000 0000 0000 000000
2018-03-21 05:38:40,0.29,1.94,0.00,18.82,21.92,25.03,14.17,47.06,1017.57,2047.99,2742.00,2609.90,2998.33,599.96,605.13,9.96,0000 0000 0000 0000 000000
2018-03-21 05:43:42,0.28,1.95,0.00,18.84,21.96,25.07,14.13,47.00,1017.52,2047.95,2736.99,2606.53,2994.51,600.00,605.05,10.01,0000 0000 0000 0000 000000
2018-03-21 05:48:43,0.26,1.97,0.00,18.87,22.00,25.12,14.13,47.03,1017.52,2047.81,2732.15,2603.32,2990.87,600.01,605.09,10.06,0000 0000 0000 0000 000000
2018-03-21 05:53:44,0.23,1.98,0.00,18.91,22.04,25.17,14.16,47.00,1017.40,2047.27,2727.22,2600.04,2987.08,600.15,604.92,10.11,0000 0000 0000 0000 000000
2018-03-21 05:58:46,0.28,1.99,0.00,18.94,22.08,25.21,14.05,46.89,1017.26,2047.05,2722.15,2596.66,2983.29,599.78,604.48,10.16,0000 0000 0000 0000 000000
2018-03-21 06:03:47,0.28,2.00,0.00,18.98,22.12,25.23,14.10,46.92,1017.12,2047.00,2717.23,2593.36,2979.52,599.75,604.25,10.21,0000 0000 0000 0000 000000
2018-03-21 06:08:48,0.27,2.02,0.00,19.03,22.16,25.29,14.17,46.84,1017.11,2047.00,2712.67,2590.27,2975.95,600.37,604.86,10.26,0000 0000 0000 0000 000000
2018-03-21 06:13:49,0.25,2.03,0.00,19.07,22.19,25.34,14.09,46.94,1017.11,2047.00,2708.33,2587.31,2972.50,599.84,604.19,10.31,0000 0000 0000 0000 000000
2018-03-21 06:18:50,0.24,2.04,0.00,19.11,22.23,25.37,14.15,46.84,1017.11,2047.00,2704.25,2584.54,2969.31,600.08,604.32,10.36,0000 0000 0000 0000 000000
2018-03-21 06:23:52,0.24,2.06,0.00,19.15,22.27,25.40,14.15,46.92,1017.11,2046.98,2700.17,2581.74,2966.16,600.25,604.40,10.41,0000 0000 0000 0000 000000
2018-03-21 06:28:53,0.23,2.07,0.00,19.19,22.31,25.44,14.07,46.98,1017.09,2046.88,2696.07,2578.94,2962.96,599.99,604.07,10.46,0000 0000 0000 0000 000000
2018-03-21 06:33:54,0.18,2.08,0.00,19.23,22.35,25.47,14.07,46.89,1017.06,2046.39,2691.83,2576.06,2959.72,599.90,603.84,10.51,0000 0000 0000 0000 000000
2018-03-21 06:38:56,0.25,2.09,0.00,19.27,22.39,25.50,14.08,46.89,1016.96,2046.04,2687.48,2573.07,2956.27,600.11,603.92,10.56,0000 0000 0000 0000 000000
2018-03-21 06:43:57,0.26,2.11,0.00,19.29,22.43,25.54,14.07,46.83,1016.76,2046.01,2683.01,2570.00,2952.69,600.00,603.67,10.61,0000 0000 0000 0000 000000
2018-03-21 06:48:58,0.27,2.12,0.00,19.32,22.47,25.58,14.10,46.93,1016.70,2046.00,2678.49,2566.95,2949.25,600.14,603.59,10.66,0000 0000 0000 0000 000000
2018-03-21 06:53:59,0.26,2.13,0.00,19.35,22.51,25.61,14.15,46.88,1016.65,2045.98,2674.07,2563.97,2945.81,600.42,603.96,10.71,0000 0000 0000 0000 000000
2018-03-21 06:59:00,0.26,2.14,0.00,19.38,22.55,25.64,14.12,46.97,1016.63,2045.92,2669.73,2560.96,2942.48,600.02,603.36,10.76,0000 0000 0000 0000 000000
2018-03-21 07:04:01,0.19,2.16,0.00,19.40,22.59,25.69,14.11,47.02,1016.62,2045.37,2665.21,2558.07,2938.96,599.86,603.22,10.81,0000 0000 0000 0000 000000
2018-03-21 07:09:03,0.24,2.17,0.00,19.43,22.62,25.73,14.07,46.99,1016.63,2045.06,2660.69,2555.15,2935.57,600.00,603.24,10.86,0000 0000 0000 0000 000000
2018-03-21 07:14:04,0.25,2.18,0.00,19.46,22.65,25.77,14.17,47.07,1016.62,2045.01,2656.44,2552.28,2932.23,600.33,603.65,10.91,0000 0000 0000 0000 000000
2018-03-21 07:19:05,0.25,2.19,0.00,19.49,22.68,25.81,14.15,47.11,1016.62,2045.00,2652.33,2549.49,2929.14,599.89,603.06,10.96,0000 0000 0000 0000 000000
2018-03-21 07:24:07,0.24,2.21,0.00,19.53,22.71,25.84,14.06,47.18,1016.62,2045.00,2648.15,2546.78,2926.15,599.88,602.99,11.01,0000 0000 0000 0000 000000
2018-03-21 07:29:08,0.22,2.22,0.00,19.55,22.74,25.89,14.12,47.13,1016.62,2044.99,2644.49,2544.25,2923.15,599.79,602.80,11.06,0000 0000 0000 0000 000000
2018-03-21 07:34:10,0.24,2.23,0.00,19.57,22.77,25.90,14.02,47.14,1016.62,2044.95,2640.71,2541.60,2920.10,599.87,603.07,11.11,0000 0000 0000 0000 000000
2018-03-21 07:39:11,0.18,2.24,0.00,19.60,22.80,25.94,14.16,47.18,1016.62,2044.47,2636.60,2538.86,2916.88,600.04,603.02,11.16,0000 0000 0000 0000 000000
2018-03-21 07:44:12,0.23,2.25,0.00,19.62,22.83,25.97,14.09,46.99,1016.62,2044.16,2632.49,2536.05,2913.70,599.98,602.96,11.22,0000 0000 0000 0000 000000
2018-03-21 07:49:13,0.25,2.26,0.00,19.65,22.86,26.01,14.09,47.08,1016.61,2044.04,2628.26,2533.19,2910.46,599.95,602.94,11.27,0000 0000 0000 0000 000000
2018-03-21 07:54:14,0.25,2.28,0.00,19.67,22.89,26.04,14.13,47.00,1016.61,2044.00,2624.05,2530.29,2907.09,600.14,603.06,11.32,0000 0000 0000 0000 000000
2018-03-21 07:59:16,0.26,2.29,0.00,19.69,22.92,26.06,14.10,46.95,1016.53,2044.00,2619.89,2527.45,2903.79,599.91,602.68,11.37,0000 0000 0000 0000 000000
2018-03-21 08:04:17,0.24,2.30,0.00,19.72,22.94,26.10,14.12,46.87,1016.28,2044.00,2615.80,2524.64,2900.68,599.94,602.46,11.42,0000 0000 0000 0000 000000
2018-03-21 08:09:18,0.24,2.32,0.00,19.73,22.98,26.13,14.09,46.91,1016.23,2044.00,2611.89,2521.99,2897.63,600.09,602.50,11.47,0000 0000 0000 0000 000000
2018-03-21 08:14:20,0.29,2.33,0.00,19.75,23.00,26.15,14.13,46.92,1016.14,2043.99,2607.32,2518.99,2894.25,600.08,602.44,11.52,0000 0000 0000 0000 000000
2018-03-21 08:19:21,0.29,2.34,0.00,19.77,23.03,26.19,14.05,47.02,1016.13,2043.96,2602.49,2515.73,2890.63,599.86,602.10,11.57,0000 0000 0000 0000 000000
2018-03-21 08:24:22,0.28,2.36,0.00,19.79,23.05,26.22,14.07,47.02,1016.13,2043.92,2597.80,2512.59,2887.05,599.68,602.03,11.62,0000 0000 0000 0000 000000
2018-03-21 08:29:24,0.25,2.37,0.00,19.80,23.08,26.25,14.12,47.02,1016.08,2043.76,2593.51,2509.67,2883.59,599.94,602.10,11.67,0000 0000 0000 0000 000000
2018-03-21 08:34:25,0.23,2.38,0.00,19.82,23.11,26.27,14.16,46.91,1016.09,2043.15,2588.93,2506.55,2880.07,600.30,602.51,11.72,0000 0000 0000 0000 000000
2018-03-21 08:39:26,0.29,2.40,0.00,19.82,23.13,26.29,14.08,47.00,1016.08,2043.02,2584.16,2503.40,2876.63,600.12,602.29,11.77,0000 0000 0000 0000 000000
2018-03-21 08:44:27,0.30,2.41,0.00,19.84,23.15,26.32,14.06,47.01,1015.77,2043.00,2579.20,2500.13,2872.94,599.75,601.71,11.82,0000 0000 0000 0000 000000
2018-03-21 08:49:29,0.30,2.43,0.00,19.87,23.18,26.35,14.10,46.98,1015.69,2043.00,2574.34,2496.88,2869.16,599.99,601.91,11.87,0000 0000 0000 0000 000000
2018-03-21 08:54:30,0.29,2.44,0.00,19.89,23.20,26.38,14.10,47.08,1015.66,2043.00,2569.61,2493.90,2865.60,600.27,602.12,11.92,0000 0000 0000 0000 000000
2018-03-21 08:59:31,0.30,2.46,0.00,19.89,23.22,26.39,14.07,46.97,1015.65,2042.98,2564.86,2490.72,2861.97,600.02,601.80,11.97,0000 0000 0000 0000 000000
2018-03-21 09:04:32,0.27,2.47,0.00,19.89,23.24,26.42,14.07,46.90,1015.64,2042.96,2560.31,2487.69,2858.51,599.98,601.74,12.02,0000 0000 0000 0000 000000
2018-03-21 09:09:34,0.20,2.48,0.00,19.90,23.27,26.42,14.00,47.01,1015.64,2042.88,2556.97,2485.28,2855.83,599.83,601.52,12.07,0000 0000 0000 0000 000000
2018-03-21 09:14:35,0.14,2.49,0.00,19.93,23.29,26.47,14.14,47.13,1015.64,2042.73,2554.34,2483.50,2853.71,600.21,601.87,12.12,0000 0000 0000 0000 000000
2018-03-21 09:19:36,0.09,2.50,0.00,19.94,23.31,26.49,14.14,47.22,1015.64,2042.33,2552.13,2481.90,2851.94,600.26,601.92,12.17,0000 0000 0000 0000 000000
2018-03-21 09:24:38,0.11,2.50,0.00,19.95,23.32,26.52,14.13,47.30,1015.64,2042.22,2550.39,2480.66,2850.54,600.03,601.68,12.22,0000 0000 0000 0000 000000
2018-03-21 09:29:39,0.12,2.51,0.00,19.97,23.34,26.54,14.13,47.33,1015.63,2042.15,2548.47,2479.37,2848.90,599.96,601.49,12.27,0000 0000 0000 0000 000000
2018-03-21 09:34:40,0.19,2.51,0.00,19.97,23.36,26.58,14.13,47.41,1015.49,2042.02,2545.68,2477.36,2846.59,600.22,601.86,12.32,0000 0000 0000 0000 000000
2018-03-21 09:39:42,0.22,2.53,0.00,19.98,23.37,26.60,14.07,47.43,1015.22,2042.01,2541.94,2474.93,2843.81,599.82,601.12,12.37,0000 0000 0000 0000 000000
2018-03-21 09:44:43,0.25,2.54,0.00,19.99,23.38,26.60,14.11,47.17,1015.20,2042.01,2538.23,2472.40,2840.82,600.22,601.50,12.42,0000 0000 0000 0000 000000
2018-03-21 09:49:44,0.26,2.55,0.00,19.99,23.40,26.62,14.14,47.33,1015.15,2042.00,2534.16,2469.65,2837.69,600.11,601.35,12.47,0000 0000 0000 0000 000000
2018-03-21 09:54:45,0.30,2.57,0.00,19.99,23.42,26.61,14.11,47.22,1015.15,2041.99,2529.67,2466.66,2834.22,600.34,601.57,12.52,0000 0000 0000 0000 000000
2018-03-21 09:59:46,0.24,2.58,0.00,20.00,23.43,26.64,14.09,47.31,1015.15,2041.99,2525.64,2464.07,2831.28,599.76,601.03,12.57,0000 0000 0000 0000 000000
2018-03-21 10:04:47,0.22,2.59,0.00,19.99,23.45,26.65,14.07,47.12,1015.15,2041.99,2522.25,2461.71,2828.66,600.02,601.23,12.62,0000 0000 0000 0000 000000
2018-03-21 10:09:49,0.18,2.60,0.00,20.02,23.47,26.70,14.13,47.27,1015.14,2041.98,2519.08,2459.58,2826.25,600.22,601.52,12.67,0000 0000 0000 0000 000000
2018-03-21 10:14:50,0.14,2.61,0.00,20.02,23.47,26.75,13.99,47.23,1015.08,2041.98,2516.72,2457.95,2824.44,599.53,600.89,12.72,0000 0000 0000 0000 000000
2018-03-21 10:19:51,0.12,2.62,0.00,20.02,23.49,26.71,14.05,47.21,1014.93,2041.99,2514.87,2456.63,2822.94,600.00,601.05,12.77,0000 0000 0000 0000 000000
2018-03-21 10:24:53,0.12,2.62,0.00,20.02,23.51,26.70,14.06,47.22,1014.97,2041.98,2513.06,2455.39,2821.46,599.96,601.06,12.82,0000 0000 0000 0000 000000
2018-03-21 10:29:55,0.12,2.63,0.00,20.04,23.52,26.71,14.05,47.25,1015.04,2041.96,2511.18,2454.02,2819.85,600.25,601.34,12.87,0000 0000 0000 0000 000000
2018-03-21 10:34:56,0.13,2.64,0.00,20.06,23.53,26.73,14.11,47.37,1014.72,2041.87,2509.06,2452.54,2818.11,599.97,600.92,12.92,0000 0000 0000 0000 000000
2018-03-21 10:39:57,0.13,2.64,0.00,20.07,23.55,26.77,14.13,47.31,1014.68,2041.88,2507.11,2451.21,2816.58,600.24,601.13,12.97,0000 0000 0000 0000 000000
2018-03-21 10:44:58,0.11,2.65,0.00,20.07,23.56,26.79,14.08,47.41,1014.68,2041.65,2505.09,2449.73,2815.00,600.04,600.90,13.02,0000 0000 0000 0000 000000
2018-03-21 10:50:00,0.12,2.65,0.00,20.07,23.57,26.80,14.03,47.40,1014.66,2041.42,2502.75,2448.16,2813.17,599.70,600.63,13.07,0000 0000 0000 0000 000000
2018-03-21 10:55:01,0.13,2.66,0.00,20.09,23.59,26.81,14.06,47.34,1014.66,2041.12,2500.44,2446.53,2811.23,599.97,600.76,13.12,0000 0000 0000 0000 000000
2018-03-21 11:00:02,0.14,2.67,0.00,20.09,23.60,26.81,14.16,47.27,1014.66,2041.05,2498.17,2444.91,2809.45,600.35,601.11,13.17,0000 0000 0000 0000 000000
2018-03-21 11:05:04,0.11,2.68,0.00,20.09,23.62,26.82,14.11,47.25,1014.66,2041.02,2496.47,2443.69,2808.04,600.24,601.03,13.22,0000 0000 0000 0000 000000
2018-03-21 11:10:05,0.10,2.68,0.00,20.09,23.62,26.87,14.04,47.28,1014.64,2041.03,2495.03,2442.63,2806.76,599.94,600.75,13.27,0000 0000 0000 0000 000000
2018-03-21 11:15:07,0.10,2.69,0.00,20.11,23.65,26.87,14.16,47.31,1014.60,2041.01,2493.53,2441.47,2805.47,600.38,601.03,13.32,0000 0000 0000 0000 000000
2018-03-21 11:20:08,0.09,2.69,0.00,20.12,23.65,26.89,14.08,47.38,1014.59,2041.01,2491.99,2440.36,2804.20,599.98,600.61,13.38,0000 0000 0000 0000 000000
2018-03-21 11:25:10,0.10,2.70,0.00,20.12,23.67,26.88,14.04,47.38,1014.39,2041.00,2490.55,2439.36,2803.01,599.92,600.65,13.43,0000 0000 0000 0000 000000
2018-03-21 11:30:11,0.11,2.70,0.00,20.13,23.67,26.89,14.00,47.54,1014.21,2041.01,2488.88,2438.24,2801.60,599.86,600.44,13.48,0000 0000 0000 0000 000000
2018-03-21 11:35:12,0.12,2.71,0.00,20.14,23.70,26.90,14.09,47.67,1014.20,2041.00,2487.03,2436.82,2800.13,599.67,600.18,13.53,0000 0000 0000 0000 000000
2018-03-21 11:40:13,0.12,2.71,0.00,20.13,23.70,26.90,14.09,47.59,1014.19,2041.00,2485.34,2435.61,2798.66,599.77,600.10,13.58,0000 0000 0000 0000 000000
2018-03-21 11:45:14,0.11,2.72,0.00,20.15,23.72,26.95,13.97,47.54,1014.21,2041.00,2483.62,2434.36,2797.25,600.39,600.73,13.63,0000 0000 0000 0000 000000
2018-03-21 11:50:16,0.12,2.73,0.00,20.17,23.72,26.92,14.03,47.43,1014.19,2041.00,2481.85,2433.10,2795.71,599.70,600.11,13.68,0000 0000 0000 0000 000000
2018-03-21 11:55:17,0.12,2.73,0.00,20.17,23.74,26.93,14.06,47.63,1014.18,2041.00,2480.08,2431.80,2794.21,599.88,600.25,13.73,0000 0000 0000 0000 000000
2018-03-21 12:00:18,0.13,2.74,0.00,20.17,23.75,26.96,14.11,47.53,1014.16,2041.00,2478.21,2430.55,2792.63,599.89,600.42,13.78,0000 0000 0000 0000 000000
2018-03-21 12:05:20,0.15,2.75,0.00,20.18,23.76,26.96,14.03,47.61,1014.15,2041.00,2476.20,2429.01,2790.91,599.96,600.37,13.83,0000 0000 0000 0000 000000
2018-03-21 12:10:20,0.15,2.75,0.00,20.19,23.77,26.98,14.07,47.59,1014.03,2040.99,2473.69,2427.32,2788.87,599.78,600.01,13.88,0000 0000 0000 0000 000000
2018-03-21 12:15:21,0.17,2.76,0.00,20.20,23.78,27.01,14.06,47.45,1013.74,2040.98,2471.36,2425.58,2786.90,600.13,600.15,13.93,0000 0000 0000 0000 000000
2018-03-21 12:20:23,0.11,2.77,0.00,20.21,23.80,27.01,14.04,47.58,1013.70,2040.98,2469.55,2424.26,2785.39,600.06,600.06,13.98,0000 0000 0000 0000 000000
2018-03-21 12:25:24,0.12,2.78,0.00,20.22,23.80,27.01,14.05,47.54,1013.69,2040.98,2467.85,2422.98,2783.95,599.89,599.84,14.03,0000 0000 0000 0000 000000
2018-03-21 12:30:25,0.12,2.78,0.00,20.22,23.81,27.00,14.02,47.54,1013.64,2040.98,2466.14,2421.72,2782.45,600.21,600.17,14.08,0000 0000 0000 0000 000000
2018-03-21 12:35:27,0.11,2.79,0.00,20.24,23.82,27.01,14.10,47.55,1013.43,2040.96,2464.52,2420.56,2781.01,600.26,599.94,14.13,0000 0000 0000 0000 000000
2018-03-21 12:40:28,0.10,2.79,0.00,20.25,23.82,27.04,14.06,47.61,1013.54,2040.87,2462.82,2419.42,2779.67,599.92,599.72,14.18,0000 0000 0000 0000 000000
2018-03-21 12:45:29,0.09,2.80,0.00,20.27,23.82,27.03,14.14,47.58,1013.26,2040.84,2461.35,2418.27,2778.44,600.11,599.58,14.23,0000 0000 0000 0000 000000
2018-03-21 12:50:30,0.11,2.80,0.00,20.27,23.84,27.02,14.06,47.52,1013.27,2040.73,2459.67,2417.11,2777.03,600.02,599.54,14.28,0000 0000 0000 0000 000000
2018-03-21 12:55:31,0.16,2.81,0.00,20.27,23.85,27.03,14.02,47.53,1013.23,2040.48,2457.22,2415.34,2774.93,600.16,599.67,14.33,0000 0000 0000 0000 000000